Weather History for KTCS - April, 2014

Change the Weather History Date:

Saturday, April 5, 2014

  Actual Average Record
Temperature  
Mean Temperature 54 °F -  
Max Temperature 69 °F 72 °F - ()
Min Temperature 39 °F 42 °F - ()
Degree Days  
Heating Degree Days 11    
Month to date heating degree days  
Since 1 July heating degree days  
Cooling Degree Days 0    
Month to date cooling degree days  
Year to date cooling degree days  
Growing Degree Days 4 (Base 50)    
Moisture  
Dew Point 13 °F    
Average Humidity 17    
Maximum Humidity 27    
Minimum Humidity 6    
Precipitation  
Precipitation 0.00 in - - ()
Month to date precipitation 0.00  
Year to date precipitation 0.09  
Sea Level Pressure  
Sea Level Pressure 29.69 in    
Wind  
Wind Speed 10 mph (West)    
Max Wind Speed 28 mph    
Max Gust Speed 38 mph    
Visibility 10 miles    
Events      
T = Trace of Precipitation, MM = Missing Value Source: NWS Daily Summary

Daily Weather History Graph

Daily Weather History Graph

Search for Another Location

Airport or City:

Trip Planner

Search our weather history database for the weather conditions in past years. The results will help you decide how hot, cold, wet, or windy it might be!

Date:

Astronomy

Apr. 05, 2014 Rise Set
Actual Time 6:51 AM MDT 7:32 PM MDT
Civil Twilight 6:26 AM MDT 7:57 PM MDT
Nautical Twilight 5:56 AM MDT 8:27 PM MDT
Astronomical Twilight 5:26 AM MDT 8:57 PM MDT
Moon 11:12 AM MDT (4/5) 12:34 AM MDT (4/5)
Length of Visible Light 13h 31m
Length of Day
12h 40m
Waxing Crescent, 35% of the Moon is Illuminated
Apr 5
Waxing Crescent
Apr 7
First Quarter
Apr 15
Full
Apr 22
Last Quarter
Apr 29
New

Hourly Weather History & Observations

Time (MDT) Temp. Windchill Dew Point Humidity Pressure Visibility Wind Dir Wind Speed Gust Speed Precip Events Conditions
12:53 AM 48.9 °F - 9.0 °F 20% 29.73 in 10.0 mi West 4.6 mph - N/A   Clear
1:53 AM 48.0 °F - 10.9 °F 22% 29.72 in 10.0 mi SSE 6.9 mph - N/A   Clear
2:53 AM 52.0 °F - 12.9 °F 21% 29.69 in 10.0 mi SSW 5.8 mph - N/A   Clear
3:53 AM 45.0 °F 41.2 °F 10.9 °F 25% 29.68 in 10.0 mi NW 6.9 mph - N/A   Clear
4:53 AM 39.9 °F 34.5 °F 8.1 °F 27% 29.70 in 10.0 mi West 8.1 mph - N/A   Clear
5:53 AM 41.0 °F 35.8 °F 8.1 °F 26% 29.70 in 10.0 mi WNW 8.1 mph - N/A   Clear
6:53 AM 39.0 °F 35.7 °F 8.1 °F 28% 29.70 in 10.0 mi West 4.6 mph - N/A   Clear
7:53 AM 46.0 °F 41.9 °F 9.0 °F 22% 29.71 in 10.0 mi NW 8.1 mph - N/A   Clear
8:53 AM 52.0 °F - 12.9 °F 21% 29.70 in 10.0 mi SW 5.8 mph - N/A   Clear
9:53 AM 60.1 °F - 18.0 °F 20% 29.68 in 10.0 mi SSW 18.4 mph 24.2 mph N/A   Clear
10:53 AM 63.0 °F - 12.9 °F 14% 29.66 in 10.0 mi South 18.4 mph 29.9 mph N/A   Partly Cloudy
11:53 AM 64.9 °F - 12.9 °F 13% 29.64 in 10.0 mi SSW 18.4 mph 33.4 mph N/A   Partly Cloudy
12:53 PM 63.0 °F - 9.0 °F 12% 29.64 in 10.0 mi West 12.7 mph 21.9 mph N/A   Scattered Clouds
1:53 PM 68.0 °F - 3.0 °F 8% 29.60 in 10.0 mi SW 19.6 mph 28.8 mph N/A   Clear
2:53 PM 66.0 °F - 1.0 °F 8% 29.58 in 10.0 mi West 13.8 mph 24.2 mph N/A   Clear
3:53 PM 69.1 °F - -2.9 °F 6% 29.59 in 10.0 mi West 18.4 mph 26.5 mph N/A   Clear
4:53 PM 66.0 °F - 7.0 °F 10% 29.62 in 10.0 mi NW 17.3 mph 21.9 mph N/A   Clear
5:53 PM 59.0 °F - 19.0 °F 21% 29.67 in 10.0 mi NNW 20.7 mph 34.5 mph N/A   Clear
6:53 PM 55.9 °F - 21.9 °F 27% 29.70 in 10.0 mi NNW 20.7 mph 29.9 mph N/A   Partly Cloudy
7:53 PM 53.1 °F - 23.0 °F 31% 29.71 in 10.0 mi NW 10.4 mph - N/A   Clear
8:53 PM 55.0 °F - 18.0 °F 23% 29.73 in 10.0 mi NW 8.1 mph - N/A   Scattered Clouds
9:53 PM 52.0 °F - 18.0 °F 26% 29.76 in 10.0 mi North 6.9 mph - N/A   Mostly Cloudy
10:53 PM 51.1 °F - 19.0 °F 28% 29.77 in 10.0 mi NW 11.5 mph - N/A   Mostly Cloudy
11:53 PM 50.0 °F - 21.0 °F 32% 29.76 in 10.0 mi NW 11.5 mph - N/A   Clear